Regional Weather Roundup
Issued by NWS

Home | Current Version | Previous Version | Text Only | Print | Product List | Glossary On
Versions: 1 2 3 4 5 6 7 8 9 10 11 12 13 14 15 16 17 18 19 20 21 22 23 24 25 26 27 28 29 30 31 32 33 34 35 36 37 38 39 40 41 42 43 44 45 46 47 48 49 50
000
ASUS45 KBOI 301510
RWRID

IDAHO REGIONAL WEATHER ROUNDUP
NATIONAL WEATHER SERVICE BOISE ID
900 AM MDT SUN APR 30 2017

NOTE: "FAIR" INDICATES FEW OR NO CLOUDS BELOW 12000 FEET
WITH NO SIGNIFICANT WEATHER AND/OR OBSTRUCTIONS TO VISIBILITY

IDZ012-014-301600-
SOUTHWEST IDAHO


CITY           SKY/WX    TMP DP  RH WIND       PRES   REMARKS
BOISE          CLOUDY    49  34  56 CALM      30.15R
CALDWELL       LGT RAIN  50  40  68 CALM      30.15R
MOUNTAIN HOME  PTSUNNY   51  35  54 N12       30.13R
$$

IDZ016-017-301600-
SOUTHCENTRAL IDAHO


CITY           SKY/WX    TMP DP  RH WIND       PRES   REMARKS
BURLEY         PTSUNNY   50  30  46 SW10      30.11S
JEROME         CLOUDY    50  31  48 S7        30.12S
TWIN FALLS     CLOUDY    52  31  44 S10       30.12S
$$

IDZ019>023-301600-
SOUTHEAST IDAHO


CITY           SKY/WX    TMP DP  RH WIND       PRES   REMARKS
IDAHO FALLS    MOSUNNY   44  31  60 SW16      30.12S
POCATELLO      CLOUDY    50  31  48 SW9       30.13F
REXBURG        CLOUDY    44  28  53 SW12      30.12S
$$

IDZ006-010-011-018-031-032-301600-
CENTRAL IDAHO MOUNTAINS


CITY           SKY/WX    TMP DP  RH WIND       PRES   REMARKS
MCCALL         LGT RAIN  39  34  82 CALM      30.12S
HAILEY         PTSUNNY   41  28  60 NW7       30.13F
STANLEY          N/A     33  26  75 CALM      30.16R
SALMON         CLOUDY    45  32  61 W15       30.06R
CHALLIS        CLOUDY    45  27  49 CALM      30.10S
$$

IDZ002-004-006-007-026-301600-
NORTHERN IDAHO


CITY           SKY/WX    TMP DP  RH WIND       PRES   REMARKS
LEWISTON       CLOUDY    51  48  89 CALM      30.06S
LOWELL           N/A     46  44  93 CALM      30.12S
COEUR D`ALENE  CLOUDY    48  41  76 SW10      30.03S
MULLAN PASS    SNOW      32  32 100 VRB6      29.97S VSB<1/4 WCI  26
$$



USA.gov is the U.S. government's official web portal to all federal, state and local government web resources and services.